Regional Weather Roundup
Issued by NWS Sterling, VA

Home | Current Version | Previous Version | Text Only | Print | Product List | Glossary Off
Versions: 1 2 3 4 5 6 7 8 9 10 11 12 13 14 15 16 17 18 19 20 21 22 23 24 25 26 27 28 29 30 31 32 33 34 35 36 37 38 39 40 41 42 43 44 45 46 47 48 49 50

000
ASUS41 KLWX 040410
RWRLWX

REGIONAL WEATHER ROUNDUP
NATIONAL WEATHER SERVICE BALTIMORE MD/WASHINGTON DC
1200 AM EDT SAT JUL 04 2015

Note: "FAIR" indicates few or no clouds below 12,000 feet
with no significant weather and/or obstructions to visibility.
 TC=TEMPERATURE CELSIUS

 * =Non NWS site. Station does not report precipitation (e.g. rain,
    snow, etc.), thunder, or fog.

DCZ001-MDZ009-015-VAZ040>042-051-053>054-040500-
WASHINGTON METRO

CITY           SKY/WX    TMP DP  RH WIND       PRES   REMARKS
WASHINGTON NAT LGT RAIN  74  67  78 CALM      29.94F
DULLES         CLOUDY    70  64  81 S3        29.94S
ANDREWS AFB    CLOUDY    69  68  95 E3        29.93F
FT BELVOIR     CLOUDY    68  66  94 CALM      29.93F
QUANTICO       CLOUDY    74  65  73 S9        29.94S
COLLEGE PARK*  CLOUDY    70  70 100 CALM      29.94S
LEESBURG*      CLOUDY    72  68  88 S6        29.95S
MANASSAS*      CLOUDY    70  70 100 CALM        N/A
GAITHERSBURG*  CLOUDY    70  63  78 SE5       29.98S

$$

MDZ006>007-011-014-040500-
BALTIMORE METRO

CITY           SKY/WX    TMP DP  RH WIND       PRES   REMARKS
BWI AIRPORT    CLOUDY    72  65  78 SE5       29.94S
MD SCIENCE CTR   N/A     75  62  64 MISG      29.94S
MARTIN STATE   CLOUDY    72  68  88 SE9       29.96S
ANNAPOLIS      CLOUDY    74  65  73 SE14      29.94S
FORT MEADE*    CLOUDY    68  63  83 SE5       29.96F

$$

MDZ012-015-019>023-040500-
MARYLAND EASTERN SHORE

CITY           SKY/WX    TMP DP  RH WIND       PRES   REMARKS
OCEAN CITY     CLOUDY    73  67  81 SE9       29.94F
SALISBURY      CLOUDY    69  67  93 E3        29.93F
BAY BRIDGE AP*   N/A     72  63  73 SE7       29.94F
CAMBRIDGE*     CLOUDY    72  64  78 E3        29.93F
EASTON*        CLOUDY    72  69  90 E3        29.98S

$$

MDZ017>025-040500-
SOUTHERN MARYLAND

CITY           SKY/WX    TMP DP  RH WIND       PRES   REMARKS
PATUXENT RIVER LGT RAIN  74  67  78 SE13G21   29.91F
ST INIGOES     LGT RAIN  74  67  78 E6        29.90F
LEONARDTOWN*   CLOUDY    72  64  78 SE3       29.94S

$$

MDZ003>005-040500-
NORTH CENTRAL MARYLAND

CITY           SKY/WX    TMP DP  RH WIND       PRES   REMARKS
FREDERICK*     CLOUDY    72  64  78 CALM      29.96F
HAGERSTOWN APT RAIN      72  63  73 S7        29.94S
WESTMINSTER*   CLOUDY    72  63  73 S8        29.95S

$$

MDZ501>502-040500-
WESTERN MARYLAND

CITY           SKY/WX    TMP DP  RH WIND       PRES   REMARKS
OAKLAND*       CLOUDY    59 N/A N/A SE9       29.98S FOG
CUMBERLAND*    CLOUDY    66  66 100 CALM      29.97S

$$

VAZ025>031-040500-
SHENANDOAH VALLEY

CITY           SKY/WX    TMP DP  RH WIND       PRES   REMARKS
WINCHESTER*    CLOUDY    70  68  94 S5        29.94S
FRONT ROYAL*   CLOUDY    68  66  94 CALM      29.92F
LURAY*         LGT RAIN  68  68 100 CALM      29.94F
NEW MARKET*    CLOUDY    66  66  99 CALM      29.93S
STAUNTON*      RAIN      69  66  91 W3        29.97S
WAYNESBORO*    CLOUDY    66  65  94 CALM      29.96F

$$

WVZ021-048>050-054>055-040500-
EASTERN WEST VIRGINIA PANHANDLE

CITY           SKY/WX    TMP DP  RH WIND       PRES   REMARKS
MARTINSBURG    LGT RAIN  68  65  90 SE6       29.94S FOG
PETERSBURG*    CLOUDY    65  62  91 CALM      29.95S FOG

$$

VAZ036>039-050-040500-
CENTRAL FOOTHILLS

CITY           SKY/WX    TMP DP  RH WIND       PRES   REMARKS
CHARLOTTESVILL CLOUDY    69  66  90 N3        29.93F FOG
CULPEPER*      CLOUDY    67  67  99 CALM      29.94F FOG
ORANGE*        CLOUDY    70  68  94 CALM      29.94F
GORDONSVILLE*  CLOUDY    68  68 100 CALM      29.93S FOG
WARRENTON*     MOCLDY    69  69 100 CALM      29.92F FOG

$$

VAZ055>057-040500-
NORTH AND CENTRAL PIEDMONT

CITY           SKY/WX    TMP DP  RH WIND       PRES   REMARKS
FREDERICKSBRG* CLOUDY    72  72  99 CALM      29.92S
STAFFORD*      CLOUDY    67  66  94 CALM      29.97S FOG

$$

NCZ024-NYZ072-PAZ021-071-VAZ022-071-040500-
OTHER REGIONAL OBSERVATIONS

CITY           SKY/WX    TMP DP  RH WIND       PRES   REMARKS
NEW YORK CITY  MOCLDY    71  58  63 VRB5      30.00F
PHILADELPHIA   CLOUDY    72  64  76 SE5       29.97S
PITTSBURGH     CLOUDY    67  65  93 E3        29.89S FOG
ROANOKE        LGT RAIN  68  67  96 CALM      29.97S FOG
RICHMOND       LGT RAIN  72  69  90 E3        29.90F FOG
RALEIGH        LGT RAIN  74  71  91 W3        29.91R

$$

ANZ530>537-040500-
MARINE OBSERVATIONS

STATION/POSITION TIME  TEMP    WIND        PRES
                       AIR SEA DIR/SP/G
                 (UTC) (F)     (DEG/KT/KT) (MB)
THOMAS PT LIGHT  0320   73 77  130/ 11/ 12 1014.3
BALT KEY BRIDGE  0300   75     130/ 11/ 13 1013.5F
COVE POINT       0300   74     170/ 17/ 19 1014.4R
LEWISETTA        0300   74 79  140/ 12/ 15 1012.8S
SOLOMONS ISLAND  0300      80                N/A
PINEY POINT      0300          160/ 17/ 20   N/A

$$




USA.gov is the U.S. government's official web portal to all federal, state and local government web resources and services.